Weather History for Melbourne, FL

Change the Weather History Date:

Sunday, August 31, 2014

  Actual Average Record
Temperature  
Mean Temperature 83 °F 81 °F  
Max Temperature 90 °F 90 °F 98 °F (1955)
Min Temperature 76 °F 73 °F 68 °F (1938)
Degree Days  
Heating Degree Days 0 0  
Month to date heating degree days 0 0  
Since 1 June heating degree days 0 0  
Since 1 July heating degree days 0 0  
Cooling Degree Days 18 16  
Month to date cooling degree days 583 522  
Year to date cooling degree days 2487 2226  
Since 1 June cooling degree days 1594 1500  
Growing Degree Days 32 (Base 50)    
Moisture  
Dew Point 74 °F    
Average Humidity 75    
Maximum Humidity 91    
Minimum Humidity 59    
Precipitation  
Precipitation 0.00 in 0.25 in 1.14 in (1944)
Month to date precipitation 4.35 7.68  
Year to date precipitation 37.83 33.85  
Sea Level Pressure  
Sea Level Pressure 30.11 in    
Wind  
Wind Speed 6 mph (ESE)    
Max Wind Speed 16 mph    
Max Gust Speed 20 mph    
Visibility 10 miles    
Events      
T = Trace of Precipitation, MM = Missing Value Source: NWS Daily Summary

Daily Weather History Graph

Daily Weather History Graph

Search for Another Location

Airport:

Trip Planner

Search our weather history database for the weather conditions in past years. The results will help you decide how hot, cold, wet, or windy it might be!

Date:

Astronomy

Aug. 31, 2014 Rise Set
Actual Time 7:00 AM EDT 7:44 PM EDT
Civil Twilight 6:36 AM EDT 8:08 PM EDT
Nautical Twilight 6:08 AM EDT 8:36 PM EDT
Astronomical Twilight 5:39 AM EDT 9:05 PM EDT
Moon 12:14 PM EDT (8/31) 11:30 PM EDT (8/31)
Length of Visible Light 13h 31m
Length of Day
12h 44m
Waxing Crescent, 32% of the Moon is Illuminated
Aug 31
Waxing Crescent
Sep 2
First Quarter
Sep 8
Full
Sep 15
Last Quarter
Sep 24
New

Hourly Weather History & Observations

Time (EDT) Temp. Heat Index Dew Point Humidity Pressure Visibility Wind Dir Wind Speed Gust Speed Precip Events Conditions
12:53 AM 79.0 °F - 73.0 °F 82% 30.13 in 10.0 mi Calm Calm - N/A   Clear
1:53 AM 79.0 °F - 73.0 °F 82% 30.14 in 10.0 mi Calm Calm - N/A   Partly Cloudy
2:53 AM 79.0 °F - 73.0 °F 82% 30.12 in 10.0 mi Calm Calm - N/A   Clear
3:53 AM 78.1 °F - 73.0 °F 84% 30.11 in 10.0 mi Calm Calm - N/A   Clear
4:53 AM 77.0 °F - 73.0 °F 88% 30.11 in 10.0 mi Calm Calm - N/A   Clear
5:53 AM 77.0 °F - 73.0 °F 88% 30.12 in 10.0 mi Calm Calm - N/A   Clear
6:53 AM 75.9 °F - 72.0 °F 87% 30.12 in 10.0 mi Calm Calm - N/A   Clear
7:53 AM 79.0 °F - 75.0 °F 88% 30.13 in 10.0 mi Calm Calm - N/A   Clear
8:53 AM 84.9 °F 96.6 °F 78.1 °F 80% 30.13 in 10.0 mi East 5.8 mph - N/A   Clear
9:53 AM 87.1 °F 97.3 °F 75.9 °F 69% 30.14 in 10.0 mi Variable 6.9 mph - N/A   Scattered Clouds
10:53 AM 88.0 °F 98.5 °F 75.9 °F 67% 30.14 in 10.0 mi ENE 6.9 mph - N/A   Scattered Clouds
11:53 AM 88.0 °F 98.5 °F 75.9 °F 67% 30.14 in 10.0 mi East 9.2 mph - N/A   Scattered Clouds
12:53 PM 89.1 °F 98.0 °F 73.9 °F 61% 30.13 in 10.0 mi ESE 10.4 mph - N/A   Clear
1:53 PM 89.1 °F 99.1 °F 75.0 °F 63% 30.12 in 10.0 mi ENE 11.5 mph - N/A   Scattered Clouds
2:53 PM 90.0 °F 99.0 °F 73.9 °F 59% 30.10 in 10.0 mi East 12.7 mph - N/A   Clear
3:53 PM 88.0 °F 96.5 °F 73.9 °F 63% 30.09 in 10.0 mi East 12.7 mph - N/A   Scattered Clouds
4:53 PM 88.0 °F 96.5 °F 73.9 °F 63% 30.08 in 10.0 mi East 9.2 mph - N/A   Clear
5:53 PM 87.1 °F 95.4 °F 73.9 °F 65% 30.07 in 10.0 mi East 10.4 mph - N/A   Partly Cloudy
6:53 PM 86.0 °F 93.8 °F 73.9 °F 67% 30.07 in 10.0 mi ESE 9.2 mph 17.3 mph N/A   Scattered Clouds
7:53 PM 84.9 °F 91.4 °F 73.0 °F 67% 30.07 in 10.0 mi SE 9.2 mph - N/A   Clear
8:53 PM 84.0 °F 91.9 °F 75.0 °F 74% 30.09 in 10.0 mi SSE 5.8 mph - N/A   Clear
10:53 PM 82.9 °F 90.2 °F 75.0 °F 77% 30.12 in 10.0 mi SE 5.8 mph - N/A   Clear
11:53 PM 82.0 °F 87.9 °F 73.9 °F 76% 30.12 in 10.0 mi SSE 3.5 mph - N/A   Clear